sat.trackr.live / text

‹ back to catalog

KUIPER-00025

NORAD 63739 · 2025-088R

PAYLOAD ACTIVE UNKNOWN

§ Identity

Operator
Country
US
Launch date
2025-04-28
Launch site
AFETR
Launch vehicle
Mass (kg)
RCS (m²)

External: N2YO · Heavens-Above · Gunter

§ Orbital elements

Epoch: 2026-05-25T04:48:08.711712Z

Period
97.30 min
Inclination
51.9028°
Eccentricity
0.0000680
Mean motion
14.79923570 rev/d
Perigee alt
629.1 km
Apogee alt
630.0 km
Semi-major
7,007.7 km
B*
1.2714e-4
RAAN
122.2854°
Arg perigee
57.3263°
Mean anomaly
302.7764°
Rev number
5,914

§ Raw data

KUIPER-000251 63739U 25088R   26145.20010083  .00000748  00000+0  12714-3 0  99992 63739  51.9028 122.2854 0000680  57.3263 302.7764 14.79923570 59144

JSON: /api/v1/satellites/63739 · /tle

For live sub-satellite position, see the globe view (requires WebGL).

§ Visibility from observer

Set your observer location to see the next 7 days of passes ≥ 10°. The values pass through the URL so the page stays shareable.

No JS? Fill the form by hand. The geolocation button needs JavaScript.